Year,Month,Day,Hour,Minute,Value (Times are PST for temperature in C)
2017,08,06,00,00,16.50
2017,08,06,00,01,16.50
2017,08,06,00,02,16.60
2017,08,06,00,03,16.60
2017,08,06,00,04,16.60
2017,08,06,00,05,16.60
2017,08,06,00,06,16.60
2017,08,06,00,07,16.50
2017,08,06,00,08,16.50
2017,08,06,00,09,16.50
2017,08,06,00,10,16.50
2017,08,06,00,11,16.50
2017,08,06,00,12,16.50
2017,08,06,00,13,16.50
2017,08,06,00,14,16.50
2017,08,06,00,15,16.50
2017,08,06,00,16,16.50
2017,08,06,00,17,16.50
2017,08,06,00,18,16.50
2017,08,06,00,19,16.50
2017,08,06,00,20,16.50
2017,08,06,00,21,16.50
2017,08,06,00,22,16.50
2017,08,06,00,23,16.50
2017,08,06,00,24,16.40
2017,08,06,00,25,16.40
2017,08,06,00,26,16.40
2017,08,06,00,27,16.50
2017,08,06,00,28,16.50
2017,08,06,00,29,16.50
2017,08,06,00,30,16.50
2017,08,06,00,31,16.50
2017,08,06,00,32,16.50
2017,08,06,00,33,16.50
2017,08,06,00,34,16.50
2017,08,06,00,35,16.50
2017,08,06,00,36,16.50
2017,08,06,00,37,16.50
2017,08,06,00,38,16.50
2017,08,06,00,39,16.50
2017,08,06,00,40,16.50
2017,08,06,00,41,16.60
2017,08,06,00,42,16.60
2017,08,06,00,43,16.60
2017,08,06,00,44,16.60
2017,08,06,00,45,16.50
2017,08,06,00,46,16.50
2017,08,06,00,47,16.50
2017,08,06,00,48,16.50
2017,08,06,00,49,16.50
2017,08,06,00,50,16.50
2017,08,06,00,51,16.40
2017,08,06,00,52,16.40
2017,08,06,00,53,16.40
2017,08,06,00,54,16.40
2017,08,06,00,55,16.40
2017,08,06,00,56,16.40
2017,08,06,00,57,16.40
2017,08,06,00,58,16.40
2017,08,06,00,59,16.40
2017,08,06,01,00,16.40
2017,08,06,01,01,16.40
2017,08,06,01,02,16.40
2017,08,06,01,03,16.40
2017,08,06,01,04,16.30
2017,08,06,01,05,16.40
2017,08,06,01,06,16.40
2017,08,06,01,07,16.40
2017,08,06,01,08,16.40
2017,08,06,01,09,16.40
2017,08,06,01,10,16.40
2017,08,06,01,11,16.40
2017,08,06,01,12,16.40
2017,08,06,01,13,16.40
2017,08,06,01,14,16.40
2017,08,06,01,15,16.40
2017,08,06,01,16,16.40
2017,08,06,01,17,16.40
2017,08,06,01,18,16.30
2017,08,06,01,19,16.30
2017,08,06,01,20,16.30
2017,08,06,01,21,16.30
2017,08,06,01,22,16.30
2017,08,06,01,23,16.30
2017,08,06,01,24,16.30
2017,08,06,01,25,16.30
2017,08,06,01,26,16.30
2017,08,06,01,27,16.30
2017,08,06,01,28,16.30
2017,08,06,01,29,16.30
2017,08,06,01,30,16.30
2017,08,06,01,31,16.30
2017,08,06,01,32,16.30
2017,08,06,01,33,16.20
2017,08,06,01,34,16.20
2017,08,06,01,35,16.20
2017,08,06,01,36,16.20
2017,08,06,01,37,16.20
2017,08,06,01,38,16.20
2017,08,06,01,39,16.20
2017,08,06,01,40,16.10
2017,08,06,01,41,16.10
2017,08,06,01,42,16.10
2017,08,06,01,43,16.10
2017,08,06,01,44,16.10
2017,08,06,01,45,16.10
2017,08,06,01,46,16.10
2017,08,06,01,47,16.00
2017,08,06,01,48,16.00
2017,08,06,01,49,16.00
2017,08,06,01,50,16.00
2017,08,06,01,51,16.00
2017,08,06,01,52,16.10
2017,08,06,01,53,16.00
2017,08,06,01,54,16.00
2017,08,06,01,55,16.00
2017,08,06,01,56,16.00
2017,08,06,01,57,16.00
2017,08,06,01,58,15.90
2017,08,06,01,59,15.90
2017,08,06,02,00,15.90
2017,08,06,02,01,15.90
2017,08,06,02,02,15.90
2017,08,06,02,03,16.00
2017,08,06,02,04,16.00
2017,08,06,02,05,16.00
2017,08,06,02,06,16.00
2017,08,06,02,07,16.00
2017,08,06,02,08,16.00
2017,08,06,02,09,16.00
2017,08,06,02,10,16.00
2017,08,06,02,11,16.00
2017,08,06,02,12,16.00
2017,08,06,02,13,16.00
2017,08,06,02,14,16.00
2017,08,06,02,15,16.00
2017,08,06,02,16,16.00
2017,08,06,02,17,16.00
2017,08,06,02,18,16.00
2017,08,06,02,19,16.00
2017,08,06,02,20,16.00
2017,08,06,02,21,16.00
2017,08,06,02,22,16.00
2017,08,06,02,23,16.00
2017,08,06,02,24,16.00
2017,08,06,02,25,16.10
2017,08,06,02,26,16.10
2017,08,06,02,27,16.10
2017,08,06,02,28,16.10
2017,08,06,02,29,16.10
2017,08,06,02,30,16.10
2017,08,06,02,31,16.10
2017,08,06,02,32,16.10
2017,08,06,02,33,16.00
2017,08,06,02,34,16.00
2017,08,06,02,35,16.00
2017,08,06,02,36,16.00
2017,08,06,02,37,16.00
2017,08,06,02,38,15.90
2017,08,06,02,39,15.90
2017,08,06,02,40,15.90
2017,08,06,02,41,15.90
2017,08,06,02,42,15.90
2017,08,06,02,43,15.90
2017,08,06,02,44,15.80
2017,08,06,02,45,15.80
2017,08,06,02,46,15.80
2017,08,06,02,47,15.80
2017,08,06,02,48,15.80
2017,08,06,02,49,15.80
2017,08,06,02,50,15.80
2017,08,06,02,51,15.80
2017,08,06,02,52,15.80
2017,08,06,02,53,15.80
2017,08,06,02,54,15.80
2017,08,06,02,55,15.80
2017,08,06,02,56,15.80
2017,08,06,02,57,15.80
2017,08,06,02,58,15.90
2017,08,06,02,59,15.90
2017,08,06,03,00,15.90
2017,08,06,03,01,15.90
2017,08,06,03,02,15.90
2017,08,06,03,03,15.90
2017,08,06,03,04,15.90
2017,08,06,03,05,15.90
2017,08,06,03,06,15.90
2017,08,06,03,07,15.90
2017,08,06,03,08,15.90
2017,08,06,03,09,15.90
2017,08,06,03,10,15.90
2017,08,06,03,11,15.90
2017,08,06,03,12,15.90
2017,08,06,03,13,15.90
2017,08,06,03,14,15.90
2017,08,06,03,15,16.00
2017,08,06,03,16,16.00
2017,08,06,03,17,16.00
2017,08,06,03,18,16.00
2017,08,06,03,19,16.00
2017,08,06,03,20,16.00
2017,08,06,03,21,16.00
2017,08,06,03,22,16.00
2017,08,06,03,23,15.90
2017,08,06,03,24,15.90
2017,08,06,03,25,16.00
2017,08,06,03,26,16.00
2017,08,06,03,27,16.00
2017,08,06,03,28,16.00
2017,08,06,03,29,16.00
2017,08,06,03,30,16.00
2017,08,06,03,31,16.00
2017,08,06,03,32,16.00
2017,08,06,03,33,16.00
2017,08,06,03,34,16.00
2017,08,06,03,35,16.00
2017,08,06,03,36,15.90
2017,08,06,03,37,15.90
2017,08,06,03,38,15.90
2017,08,06,03,39,15.90
2017,08,06,03,40,15.90
2017,08,06,03,41,15.90
2017,08,06,03,42,15.90
2017,08,06,03,43,15.90
2017,08,06,03,44,15.90
2017,08,06,03,45,15.80
2017,08,06,03,46,15.80
2017,08,06,03,47,15.80
2017,08,06,03,48,15.80
2017,08,06,03,49,15.80
2017,08,06,03,50,15.80
2017,08,06,03,51,15.80
2017,08,06,03,52,15.70
2017,08,06,03,53,15.70
2017,08,06,03,54,15.70
2017,08,06,03,55,15.70
2017,08,06,03,56,15.70
2017,08,06,03,57,15.70
2017,08,06,03,58,15.70
2017,08,06,03,59,15.70
2017,08,06,04,00,15.70
2017,08,06,04,01,15.70
2017,08,06,04,02,15.70
2017,08,06,04,03,15.70
2017,08,06,04,04,15.70
2017,08,06,04,05,15.70
2017,08,06,04,06,15.70
2017,08,06,04,07,15.70
2017,08,06,04,08,15.70
2017,08,06,04,09,15.70
2017,08,06,04,10,15.60
2017,08,06,04,11,15.60
2017,08,06,04,12,15.60
2017,08,06,04,13,15.60
2017,08,06,04,14,15.60
2017,08,06,04,15,15.60
2017,08,06,04,16,15.60
2017,08,06,04,17,15.60
2017,08,06,04,18,15.60
2017,08,06,04,19,15.60
2017,08,06,04,20,15.50
2017,08,06,04,21,15.50
2017,08,06,04,22,15.50
2017,08,06,04,23,15.50
2017,08,06,04,24,15.50
2017,08,06,04,25,15.40
2017,08,06,04,26,15.50
2017,08,06,04,27,15.50
2017,08,06,04,28,15.40
2017,08,06,04,29,15.40
2017,08,06,04,30,15.40
2017,08,06,04,31,15.40
2017,08,06,04,32,15.40
2017,08,06,04,33,15.40
2017,08,06,04,34,15.40
2017,08,06,04,35,15.40
2017,08,06,04,36,15.40
2017,08,06,04,37,15.40
2017,08,06,04,38,15.40
2017,08,06,04,39,15.40
2017,08,06,04,40,15.40
2017,08,06,04,41,15.40
2017,08,06,04,42,15.40
2017,08,06,04,43,15.40
2017,08,06,04,44,15.40
2017,08,06,04,45,15.40
2017,08,06,04,46,15.40
2017,08,06,04,47,15.30
2017,08,06,04,48,15.30
2017,08,06,04,49,15.40
2017,08,06,04,50,15.40
2017,08,06,04,51,15.40
2017,08,06,04,52,15.30
2017,08,06,04,53,15.30
2017,08,06,04,54,15.30
2017,08,06,04,55,15.30
2017,08,06,04,56,15.30
2017,08,06,04,57,15.30
2017,08,06,04,58,15.30
2017,08,06,04,59,15.30
2017,08,06,05,00,15.30
2017,08,06,05,01,15.30
2017,08,06,05,02,15.30
2017,08,06,05,03,15.30
2017,08,06,05,04,15.30
2017,08,06,05,05,15.30
2017,08,06,05,06,15.30
2017,08,06,05,07,15.20
2017,08,06,05,08,15.20
2017,08,06,05,09,15.20
2017,08,06,05,10,15.20
2017,08,06,05,11,15.20
2017,08,06,05,12,15.20
2017,08,06,05,13,15.20
2017,08,06,05,14,15.20
2017,08,06,05,15,15.20
2017,08,06,05,16,15.10
2017,08,06,05,17,15.10
2017,08,06,05,18,15.10
2017,08,06,05,19,15.10
2017,08,06,05,20,15.10
2017,08,06,05,21,15.10
2017,08,06,05,22,15.10
2017,08,06,05,23,15.10
2017,08,06,05,24,15.10
2017,08,06,05,25,15.10
2017,08,06,05,26,15.10
2017,08,06,05,27,15.10
2017,08,06,05,28,15.00
2017,08,06,05,29,15.00
2017,08,06,05,30,15.00
2017,08,06,05,31,15.00
2017,08,06,05,32,15.00
2017,08,06,05,33,15.00
2017,08,06,05,34,15.00
2017,08,06,05,35,15.00
2017,08,06,05,36,15.00
2017,08,06,05,37,15.00
2017,08,06,05,38,15.00
2017,08,06,05,39,15.00
2017,08,06,05,40,15.00
2017,08,06,05,41,15.00
2017,08,06,05,42,15.00
2017,08,06,05,43,15.00
2017,08,06,05,44,15.00
2017,08,06,05,45,15.00
2017,08,06,05,46,15.00
2017,08,06,05,47,15.00
2017,08,06,05,48,15.00
2017,08,06,05,49,15.00
2017,08,06,05,50,15.00
2017,08,06,05,51,15.00
2017,08,06,05,52,15.00
2017,08,06,05,53,15.00
2017,08,06,05,54,15.00
2017,08,06,05,55,15.00
2017,08,06,05,56,15.00
2017,08,06,05,57,15.00
2017,08,06,05,58,15.00
2017,08,06,05,59,15.00
2017,08,06,06,00,15.00
2017,08,06,06,01,15.00
2017,08,06,06,02,15.00
2017,08,06,06,03,15.00
2017,08,06,06,04,15.00
2017,08,06,06,05,15.00
2017,08,06,06,06,15.00
2017,08,06,06,07,15.00
2017,08,06,06,08,15.00
2017,08,06,06,09,15.00
2017,08,06,06,10,15.00
2017,08,06,06,11,15.00
2017,08,06,06,12,15.00
2017,08,06,06,13,15.00
2017,08,06,06,14,14.90
2017,08,06,06,15,14.90
2017,08,06,06,16,14.90
2017,08,06,06,17,14.90
2017,08,06,06,18,14.90
2017,08,06,06,19,14.80
2017,08,06,06,20,14.80
2017,08,06,06,21,14.80
2017,08,06,06,22,14.80
2017,08,06,06,23,14.80
2017,08,06,06,24,14.80
2017,08,06,06,25,14.80
2017,08,06,06,26,14.80
2017,08,06,06,27,14.80
2017,08,06,06,28,14.80
2017,08,06,06,29,14.80
2017,08,06,06,30,14.80
2017,08,06,06,31,14.80
2017,08,06,06,32,14.80
2017,08,06,06,33,14.80
2017,08,06,06,34,14.80
2017,08,06,06,35,14.90
2017,08,06,06,36,14.90
2017,08,06,06,37,15.00
2017,08,06,06,38,15.00
2017,08,06,06,39,15.00
2017,08,06,06,40,15.00
2017,08,06,06,41,15.00
2017,08,06,06,42,15.00
2017,08,06,06,43,15.00
2017,08,06,06,44,15.00
2017,08,06,06,45,15.00
2017,08,06,06,46,15.00
2017,08,06,06,47,15.00
2017,08,06,06,48,15.00
2017,08,06,06,49,15.00
2017,08,06,06,50,15.00
2017,08,06,06,51,15.00
2017,08,06,06,52,15.00
2017,08,06,06,53,15.00
2017,08,06,06,54,15.00
2017,08,06,06,55,15.00
2017,08,06,06,56,15.00
2017,08,06,06,57,15.00
2017,08,06,06,58,15.00
2017,08,06,06,59,15.00
2017,08,06,07,00,15.00
2017,08,06,07,01,15.00
2017,08,06,07,02,15.00
2017,08,06,07,03,15.00
2017,08,06,07,04,15.00
2017,08,06,07,05,15.00
2017,08,06,07,06,15.00
2017,08,06,07,07,15.00
2017,08,06,07,08,15.00
2017,08,06,07,09,15.10
2017,08,06,07,10,15.10
2017,08,06,07,11,15.10
2017,08,06,07,12,15.10
2017,08,06,07,13,15.10
2017,08,06,07,14,15.10
2017,08,06,07,15,15.10
2017,08,06,07,16,15.10
2017,08,06,07,17,15.10
2017,08,06,07,18,15.10
2017,08,06,07,19,15.20
2017,08,06,07,20,15.20
2017,08,06,07,21,15.20
2017,08,06,07,22,15.20
2017,08,06,07,23,15.30
2017,08,06,07,24,15.30
2017,08,06,07,25,15.30
2017,08,06,07,26,15.30
2017,08,06,07,27,15.30
2017,08,06,07,28,15.40
2017,08,06,07,29,15.40
2017,08,06,07,30,15.40
2017,08,06,07,31,15.50
2017,08,06,07,32,15.50
2017,08,06,07,33,15.50
2017,08,06,07,34,15.60
2017,08,06,07,35,15.60
2017,08,06,07,36,15.60
2017,08,06,07,37,15.60
2017,08,06,07,38,15.70
2017,08,06,07,39,15.70
2017,08,06,07,40,15.70
2017,08,06,07,41,15.70
2017,08,06,07,42,15.70
2017,08,06,07,43,15.70
2017,08,06,07,44,15.80
2017,08,06,07,45,15.80
2017,08,06,07,46,15.80
2017,08,06,07,47,15.80
2017,08,06,07,48,15.80
2017,08,06,07,49,15.90
2017,08,06,07,50,15.90
2017,08,06,07,51,15.90
2017,08,06,07,52,15.90
2017,08,06,07,53,15.90
2017,08,06,07,54,15.90
2017,08,06,07,55,16.00
2017,08,06,07,56,16.00
2017,08,06,07,57,16.00
2017,08,06,07,58,16.10
2017,08,06,07,59,16.10
2017,08,06,08,00,16.10
2017,08,06,08,01,16.10
2017,08,06,08,02,16.10
2017,08,06,08,03,16.20
2017,08,06,08,04,16.20
2017,08,06,08,05,16.20
2017,08,06,08,06,16.20
2017,08,06,08,07,16.20
2017,08,06,08,08,16.30
2017,08,06,08,09,16.30
2017,08,06,08,10,16.30
2017,08,06,08,11,16.30
2017,08,06,08,12,16.40
2017,08,06,08,13,16.40
2017,08,06,08,14,16.40
2017,08,06,08,15,16.40
2017,08,06,08,16,16.40
2017,08,06,08,17,16.50
2017,08,06,08,18,16.50
2017,08,06,08,19,16.60
2017,08,06,08,20,16.60
2017,08,06,08,21,16.60
2017,08,06,08,22,16.60
2017,08,06,08,23,16.70
2017,08,06,08,24,16.70
2017,08,06,08,25,16.70
2017,08,06,08,26,16.70
2017,08,06,08,27,16.80
2017,08,06,08,28,16.80
2017,08,06,08,29,16.80
2017,08,06,08,30,16.80
2017,08,06,08,31,16.90
2017,08,06,08,32,16.90
2017,08,06,08,33,16.90
2017,08,06,08,34,16.90
2017,08,06,08,35,16.90
2017,08,06,08,36,17.00
2017,08,06,08,37,17.00
2017,08,06,08,38,17.00
2017,08,06,08,39,17.10
2017,08,06,08,40,17.10
2017,08,06,08,41,17.10
2017,08,06,08,42,17.10
2017,08,06,08,43,17.10
2017,08,06,08,44,17.20
2017,08,06,08,45,17.20
2017,08,06,08,46,17.20
2017,08,06,08,47,17.30
2017,08,06,08,48,17.30
2017,08,06,08,49,17.30
2017,08,06,08,50,17.40
2017,08,06,08,51,17.40
2017,08,06,08,52,17.50
2017,08,06,08,53,17.50
2017,08,06,08,54,17.60
2017,08,06,08,55,17.60
2017,08,06,08,56,17.70
2017,08,06,08,57,17.70
2017,08,06,08,58,17.80
2017,08,06,08,59,17.80
2017,08,06,09,00,17.90
2017,08,06,09,01,18.00
2017,08,06,09,02,18.00
2017,08,06,09,03,18.10
2017,08,06,09,04,18.10
2017,08,06,09,05,18.20
2017,08,06,09,06,18.20
2017,08,06,09,07,18.30
2017,08,06,09,08,18.30
2017,08,06,09,09,18.40
2017,08,06,09,10,18.50
2017,08,06,09,11,18.50
2017,08,06,09,12,18.60
2017,08,06,09,13,18.70
2017,08,06,09,14,18.80
2017,08,06,09,15,18.80
2017,08,06,09,16,18.90
2017,08,06,09,17,18.90
2017,08,06,09,18,19.00
2017,08,06,09,19,19.00
2017,08,06,09,20,19.10
2017,08,06,09,21,19.10
2017,08,06,09,22,19.20
2017,08,06,09,23,19.20
2017,08,06,09,24,19.30
2017,08,06,09,25,19.30
2017,08,06,09,26,19.30
2017,08,06,09,27,19.40
2017,08,06,09,28,19.40
2017,08,06,09,29,19.40
2017,08,06,09,30,19.50
2017,08,06,09,31,19.50
2017,08,06,09,32,19.60
2017,08,06,09,33,19.60
2017,08,06,09,34,19.60
2017,08,06,09,35,19.70
2017,08,06,09,36,19.70
2017,08,06,09,37,19.80
2017,08,06,09,38,19.80
2017,08,06,09,39,19.90
2017,08,06,09,40,19.90
2017,08,06,09,41,19.90
2017,08,06,09,42,20.00
2017,08,06,09,43,20.00
2017,08,06,09,44,20.00
2017,08,06,09,45,20.10
2017,08,06,09,46,20.10
2017,08,06,09,47,20.10
2017,08,06,09,48,20.10
2017,08,06,09,49,20.20
2017,08,06,09,50,20.20
2017,08,06,09,51,20.20
2017,08,06,09,52,20.20
2017,08,06,09,53,20.30
2017,08,06,09,54,20.30
2017,08,06,09,55,20.30
2017,08,06,09,56,20.30
2017,08,06,09,57,20.40
2017,08,06,09,58,20.40
2017,08,06,09,59,20.40
2017,08,06,10,00,20.50
2017,08,06,10,01,20.50
2017,08,06,10,02,20.60
2017,08,06,10,03,20.60
2017,08,06,10,04,20.60
2017,08,06,10,05,20.70
2017,08,06,10,06,20.70
2017,08,06,10,07,20.70
2017,08,06,10,08,20.80
2017,08,06,10,09,20.80
2017,08,06,10,10,20.90
2017,08,06,10,11,21.00
2017,08,06,10,12,21.10
2017,08,06,10,13,21.10
2017,08,06,10,14,21.20
2017,08,06,10,15,21.30
2017,08,06,10,16,21.40
2017,08,06,10,17,21.40
2017,08,06,10,18,21.40
2017,08,06,10,19,21.40
2017,08,06,10,20,21.50
2017,08,06,10,21,21.60
2017,08,06,10,22,21.60
2017,08,06,10,23,21.70
2017,08,06,10,24,21.80
2017,08,06,10,25,21.80
2017,08,06,10,26,21.80
2017,08,06,10,27,21.90
2017,08,06,10,28,21.90
2017,08,06,10,29,22.00
2017,08,06,10,30,22.10
2017,08,06,10,31,22.10
2017,08,06,10,32,22.10
2017,08,06,10,33,22.20
2017,08,06,10,34,22.20
2017,08,06,10,35,22.20
2017,08,06,10,36,22.20
2017,08,06,10,37,22.30
2017,08,06,10,38,22.30
2017,08,06,10,39,22.40
2017,08,06,10,40,22.50
2017,08,06,10,41,22.50
2017,08,06,10,42,22.60
2017,08,06,10,43,22.70
2017,08,06,10,44,22.80
2017,08,06,10,45,22.90
2017,08,06,10,46,22.90
2017,08,06,10,47,22.90
2017,08,06,10,48,22.90
2017,08,06,10,49,22.90
2017,08,06,10,50,22.90
2017,08,06,10,51,22.90
2017,08,06,10,52,22.90
2017,08,06,10,53,22.90
2017,08,06,10,54,22.90
2017,08,06,10,55,22.90
2017,08,06,10,56,23.00
2017,08,06,10,57,23.00
2017,08,06,10,58,23.10
2017,08,06,10,59,23.10
2017,08,06,11,00,23.20
2017,08,06,11,01,23.30
2017,08,06,11,02,23.40
2017,08,06,11,03,23.40
2017,08,06,11,04,23.50
2017,08,06,11,05,23.60
2017,08,06,11,06,23.60
2017,08,06,11,07,23.60
2017,08,06,11,08,23.60
2017,08,06,11,09,23.70
2017,08,06,11,10,23.70
2017,08,06,11,11,23.70
2017,08,06,11,12,23.80
2017,08,06,11,13,23.80
2017,08,06,11,14,23.90
2017,08,06,11,15,23.90
2017,08,06,11,16,24.00
2017,08,06,11,17,24.10
2017,08,06,11,18,24.20
2017,08,06,11,19,24.20
2017,08,06,11,20,24.30
2017,08,06,11,21,24.30
2017,08,06,11,22,24.40
2017,08,06,11,23,24.50
2017,08,06,11,24,24.50
2017,08,06,11,25,24.50
2017,08,06,11,26,24.50
2017,08,06,11,27,24.50
2017,08,06,11,28,24.50
2017,08,06,11,29,24.50
2017,08,06,11,30,24.60
2017,08,06,11,31,24.70
2017,08,06,11,32,24.70
2017,08,06,11,33,24.80
2017,08,06,11,34,24.80
2017,08,06,11,35,24.80
2017,08,06,11,36,24.80
2017,08,06,11,37,24.80
2017,08,06,11,38,24.80
2017,08,06,11,39,24.90
2017,08,06,11,40,24.90
2017,08,06,11,41,24.90
2017,08,06,11,42,24.90
2017,08,06,11,43,25.00
2017,08,06,11,44,25.10
2017,08,06,11,45,25.10
2017,08,06,11,46,25.20
2017,08,06,11,47,25.20
2017,08,06,11,48,25.20
2017,08,06,11,49,25.30
2017,08,06,11,50,25.30
2017,08,06,11,51,25.30
2017,08,06,11,52,25.40
2017,08,06,11,53,25.40
2017,08,06,11,54,25.40
2017,08,06,11,55,25.40
2017,08,06,11,56,25.40
2017,08,06,11,57,25.50
2017,08,06,11,58,25.50
2017,08,06,11,59,25.50
2017,08,06,12,00,25.50
2017,08,06,12,01,25.50
2017,08,06,12,02,25.50
2017,08,06,12,03,25.40
2017,08,06,12,04,25.40
2017,08,06,12,05,25.40
2017,08,06,12,06,25.30
2017,08,06,12,07,25.30
2017,08,06,12,08,25.30
2017,08,06,12,09,25.30
2017,08,06,12,10,25.30
2017,08,06,12,11,25.40
2017,08,06,12,12,25.40
2017,08,06,12,13,25.40
2017,08,06,12,14,25.40
2017,08,06,12,15,25.50
2017,08,06,12,16,25.50
2017,08,06,12,17,25.60
2017,08,06,12,18,25.60
2017,08,06,12,19,25.60
2017,08,06,12,20,25.70
2017,08,06,12,21,25.70
2017,08,06,12,22,25.70
2017,08,06,12,23,25.80
2017,08,06,12,24,25.80
2017,08,06,12,25,25.90
2017,08,06,12,26,25.90
2017,08,06,12,27,25.90
2017,08,06,12,28,25.90
2017,08,06,12,29,25.90
2017,08,06,12,30,25.90
2017,08,06,12,31,25.90
2017,08,06,12,32,26.00
2017,08,06,12,33,26.00
2017,08,06,12,34,25.90
2017,08,06,12,35,25.90
2017,08,06,12,36,25.80
2017,08,06,12,37,25.80
2017,08,06,12,38,25.70
2017,08,06,12,39,25.70
2017,08,06,12,40,25.70
2017,08,06,12,41,25.70
2017,08,06,12,42,25.70
2017,08,06,12,43,25.80
2017,08,06,12,44,25.80
2017,08,06,12,45,25.80
2017,08,06,12,46,25.80
2017,08,06,12,47,25.80
2017,08,06,12,48,25.80
2017,08,06,12,49,25.90
2017,08,06,12,50,25.90
2017,08,06,12,51,25.90
2017,08,06,12,52,25.90
2017,08,06,12,53,26.00
2017,08,06,12,54,26.00
2017,08,06,12,55,26.10
2017,08,06,12,56,26.10
2017,08,06,12,57,26.10
2017,08,06,12,58,26.10
2017,08,06,12,59,26.20
2017,08,06,13,00,26.20
2017,08,06,13,01,26.20
2017,08,06,13,02,26.30
2017,08,06,13,03,26.30
2017,08,06,13,04,26.30
2017,08,06,13,05,26.30
2017,08,06,13,06,26.30
2017,08,06,13,07,26.30
2017,08,06,13,08,26.30
2017,08,06,13,09,26.40
2017,08,06,13,10,26.40
2017,08,06,13,11,26.40
2017,08,06,13,12,26.40
2017,08,06,13,13,26.50
2017,08,06,13,14,26.50
2017,08,06,13,15,26.60
2017,08,06,13,16,26.60
2017,08,06,13,17,26.70
2017,08,06,13,18,26.70
2017,08,06,13,19,26.70
2017,08,06,13,20,26.70
2017,08,06,13,21,26.70
2017,08,06,13,22,26.70
2017,08,06,13,23,26.70
2017,08,06,13,24,26.80
2017,08,06,13,25,26.80
2017,08,06,13,26,26.80
2017,08,06,13,27,26.80
2017,08,06,13,28,26.80
2017,08,06,13,29,26.80
2017,08,06,13,30,26.70
2017,08,06,13,31,26.70
2017,08,06,13,32,26.70
2017,08,06,13,33,26.70
2017,08,06,13,34,26.80
2017,08,06,13,35,26.80
2017,08,06,13,36,26.80
2017,08,06,13,37,26.80
2017,08,06,13,38,26.80
2017,08,06,13,39,26.80
2017,08,06,13,40,26.90
2017,08,06,13,41,26.90
2017,08,06,13,42,27.00
2017,08,06,13,43,27.00
2017,08,06,13,44,27.10
2017,08,06,13,45,27.10
2017,08,06,13,46,27.10
2017,08,06,13,47,27.00
2017,08,06,13,48,27.00
2017,08,06,13,49,26.90
2017,08,06,13,50,26.80
2017,08,06,13,51,26.80
2017,08,06,13,52,26.80
2017,08,06,13,53,26.80
2017,08,06,13,54,26.80
2017,08,06,13,55,26.80
2017,08,06,13,56,26.80
2017,08,06,13,57,26.80
2017,08,06,13,58,26.80
2017,08,06,13,59,26.90
2017,08,06,14,00,26.90
2017,08,06,14,01,26.90
2017,08,06,14,02,27.00
2017,08,06,14,03,27.00
2017,08,06,14,04,27.10
2017,08,06,14,05,27.10
2017,08,06,14,06,27.20
2017,08,06,14,07,27.20
2017,08,06,14,08,27.20
2017,08,06,14,09,27.20
2017,08,06,14,10,27.20
2017,08,06,14,11,27.20
2017,08,06,14,12,27.20
2017,08,06,14,13,27.20
2017,08,06,14,14,27.10
2017,08,06,14,15,27.10
2017,08,06,14,16,27.10
2017,08,06,14,17,27.10
2017,08,06,14,18,27.20
2017,08,06,14,19,27.20
2017,08,06,14,20,27.30
2017,08,06,14,21,27.30
2017,08,06,14,22,27.40
2017,08,06,14,23,27.40
2017,08,06,14,24,27.40
2017,08,06,14,25,27.50
2017,08,06,14,26,27.50
2017,08,06,14,27,27.60
2017,08,06,14,28,27.60
2017,08,06,14,29,27.60
2017,08,06,14,30,27.50
2017,08,06,14,31,27.50
2017,08,06,14,32,27.50
2017,08,06,14,33,27.50
2017,08,06,14,34,27.50
2017,08,06,14,35,27.50
2017,08,06,14,36,27.40
2017,08,06,14,37,27.30
2017,08,06,14,38,27.30
2017,08,06,14,39,27.30
2017,08,06,14,40,27.30
2017,08,06,14,41,27.30
2017,08,06,14,42,27.30
2017,08,06,14,43,27.30
2017,08,06,14,44,27.30
2017,08,06,14,45,27.40
2017,08,06,14,46,27.40
2017,08,06,14,47,27.40
2017,08,06,14,48,27.40
2017,08,06,14,49,27.50
2017,08,06,14,50,27.50
2017,08,06,14,51,27.60
2017,08,06,14,52,27.60
2017,08,06,14,53,27.60
2017,08,06,14,54,27.60
2017,08,06,14,55,27.70
2017,08,06,14,56,27.70
2017,08,06,14,57,27.70
2017,08,06,14,58,27.80
2017,08,06,14,59,27.80
2017,08,06,15,00,27.80
2017,08,06,15,01,27.70
2017,08,06,15,02,27.70
2017,08,06,15,03,27.70
2017,08,06,15,04,27.70
2017,08,06,15,05,27.70
2017,08,06,15,06,27.60
2017,08,06,15,07,27.60
2017,08,06,15,08,27.60
2017,08,06,15,09,27.60
2017,08,06,15,10,27.60
2017,08,06,15,11,27.50
2017,08,06,15,12,27.50
2017,08,06,15,13,27.50
2017,08,06,15,14,27.50
2017,08,06,15,15,27.50
2017,08,06,15,16,27.50
2017,08,06,15,17,27.60
2017,08,06,15,18,27.60
2017,08,06,15,19,27.60
2017,08,06,15,20,27.60
2017,08,06,15,21,27.50
2017,08,06,15,22,27.40
2017,08,06,15,23,27.40
2017,08,06,15,24,27.40
2017,08,06,15,25,27.40
2017,08,06,15,26,27.40
2017,08,06,15,27,27.40
2017,08,06,15,28,27.50
2017,08,06,15,29,27.50
2017,08,06,15,30,27.40
2017,08,06,15,31,27.40
2017,08,06,15,32,27.40
2017,08,06,15,33,27.40
2017,08,06,15,34,27.30
2017,08,06,15,35,27.30
2017,08,06,15,36,27.30
2017,08,06,15,37,27.30
2017,08,06,15,38,27.30
2017,08,06,15,39,27.30
2017,08,06,15,40,27.30
2017,08,06,15,41,27.40
2017,08,06,15,42,27.40
2017,08,06,15,43,27.40
2017,08,06,15,44,27.40
2017,08,06,15,45,27.30
2017,08,06,15,46,27.30
2017,08,06,15,47,27.30
2017,08,06,15,48,27.30
2017,08,06,15,49,27.30
2017,08,06,15,50,27.30
2017,08,06,15,51,27.20
2017,08,06,15,52,27.20
2017,08,06,15,53,27.20
2017,08,06,15,54,27.20
2017,08,06,15,55,27.30
2017,08,06,15,56,27.30
2017,08,06,15,57,27.30
2017,08,06,15,58,27.30
2017,08,06,15,59,27.30
2017,08,06,16,00,27.30
2017,08,06,16,01,27.20
2017,08,06,16,02,27.20
2017,08,06,16,03,27.10
2017,08,06,16,04,27.10
2017,08,06,16,05,27.00
2017,08,06,16,06,27.00
2017,08,06,16,07,27.00
2017,08,06,16,08,27.00
2017,08,06,16,09,27.00
2017,08,06,16,10,27.00
2017,08,06,16,11,27.00
2017,08,06,16,12,27.00
2017,08,06,16,13,27.00
2017,08,06,16,14,27.00
2017,08,06,16,15,26.90
2017,08,06,16,16,26.90
2017,08,06,16,17,26.90
2017,08,06,16,18,26.90
2017,08,06,16,19,26.90
2017,08,06,16,20,26.90
2017,08,06,16,21,26.90
2017,08,06,16,22,26.90
2017,08,06,16,23,27.00
2017,08,06,16,24,27.00
2017,08,06,16,25,27.00
2017,08,06,16,26,27.10
2017,08,06,16,27,27.10
2017,08,06,16,28,27.10
2017,08,06,16,29,27.10
2017,08,06,16,30,27.10
2017,08,06,16,31,27.00
2017,08,06,16,32,26.90
2017,08,06,16,33,26.90
2017,08,06,16,34,26.90
2017,08,06,16,35,26.90
2017,08,06,16,36,26.90
2017,08,06,16,37,26.90
2017,08,06,16,38,26.90
2017,08,06,16,39,26.90
2017,08,06,16,40,26.90
2017,08,06,16,41,26.90
2017,08,06,16,42,26.90
2017,08,06,16,43,27.00
2017,08,06,16,44,27.00
2017,08,06,16,45,27.00
2017,08,06,16,46,27.10
2017,08,06,16,47,27.10
2017,08,06,16,48,27.10
2017,08,06,16,49,27.10
2017,08,06,16,50,27.00
2017,08,06,16,51,26.90
2017,08,06,16,52,26.90
2017,08,06,16,53,26.80
2017,08,06,16,54,26.80
2017,08,06,16,55,26.80
2017,08,06,16,56,26.80
2017,08,06,16,57,26.80
2017,08,06,16,58,26.80
2017,08,06,16,59,26.80
2017,08,06,17,00,26.80
2017,08,06,17,01,26.80
2017,08,06,17,02,26.90
2017,08,06,17,03,26.90
2017,08,06,17,04,26.90
2017,08,06,17,05,26.90
2017,08,06,17,06,26.90
2017,08,06,17,07,26.90
2017,08,06,17,08,26.90
2017,08,06,17,09,26.80
2017,08,06,17,10,26.80
2017,08,06,17,11,26.80
2017,08,06,17,12,26.80
2017,08,06,17,13,26.80
2017,08,06,17,14,26.80
2017,08,06,17,15,26.80
2017,08,06,17,16,26.90
2017,08,06,17,17,26.90
2017,08,06,17,18,26.90
2017,08,06,17,19,26.90